GW5812 Weather Reports


time (UTC)temp
C
wind
direction
speed
KPH
gust
KPH
rain 1hr
cm
rain 24hr
cm
rain mn
cm
humidity
%
barometer
mb
20260504045026 10 225 0.0 1.6 0.00 0.00 0.00 51 1035.5
20260504044026 10 203 1.6 3.2 0.00 0.00 0.00 50 1035.4
20260504043026 10 225 3.2 3.2 0.00 0.00 0.00 48 1035.4
20260504042027 10 203 0.0 1.6 0.00 0.00 0.00 48 1035.3
20260504041026 11 270 1.6 3.2 0.00 0.00 0.00 48 1035.3
20260504040031 11 270 3.2 3.2 0.00 0.00 0.00 47 1035.3
20260504035026 11 203 0.0 1.6 0.00 0.00 0.00 46 1035.3
20260504034026 11 45 1.6 3.2 0.00 0.00 0.00 44 1035.2
20260504033028 11 90 3.2 3.2 0.00 0.00 0.00 49 1035.3
20260504032025 11 293 1.6 3.2 0.00 0.00 0.00 45 1035.3
20260504031026 11 113 0.0 0.0 0.00 0.00 0.00 43 1035.3
20260504030028 11 225 1.6 3.2 0.00 0.00 0.00 43 1035.4
20260504025026 11 293 0.0 0.0 0.00 0.00 0.00 42 1035.3
20260504024026 11 248 4.8 6.4 0.00 0.00 0.00 43 1035.3
20260504023026 11 248 0.0 0.0 0.00 0.00 0.00 39 1035.0
20260504022026 11 293 0.0 0.0 0.00 0.00 0.00 42 1035.1
20260504021026 12 113 1.6 3.2 0.00 0.00 0.00 39 1035.0
20260504020026 11 23 1.6 3.2 0.00 0.00 0.00 40 1034.7
20260504015026 12 68 3.2 3.2 0.00 0.00 0.00 40 1034.7
20260504014026 12 45 4.8 6.4 0.00 0.00 0.00 39 1034.7
20260504013025 12 360 1.6 3.2 0.00 0.00 0.00 37 1034.6
20260504012026 12 360 1.6 3.2 0.00 0.00 0.00 37 1034.4
20260504011025 12 68 4.8 6.4 0.00 0.00 0.00 36 1034.3
20260504010026 13 68 4.8 6.4 0.00 0.00 0.00 33 1034.2
20260504005026 13 68 4.8 8.0 0.00 0.00 0.00 35 1034.2
20260504004026 13 113 3.2 4.8 0.00 0.00 0.00 33 1034.1
20260504003026 13 90 1.6 3.2 0.00 0.00 0.00 33 1034.1
20260504002026 14 113 4.8 4.8 0.00 0.00 0.00 30 1034.0
20260504001025 13 338 0.0 0.0 0.00 0.00 0.00 33 1033.9
20260504000026 14 203 0.0 0.0 0.00 0.00 0.00 30 1034.0
20260503235026 15 360 0.0 0.0 0.00 0.00 0.00 26 1033.8
20260503234026 15 315 1.6 1.6 0.00 0.00 0.00 25 1033.9
20260503233027 16 338 1.6 1.6 0.00 0.00 0.00 24 1033.9
20260503232026 17 360 1.6 3.2 0.00 0.00 0.00 23 1033.9
20260503231026 17 248 4.8 6.4 0.00 0.00 0.00 22 1033.8
20260503230026 17 248 1.6 3.2 0.00 0.00 0.00 23 1033.7
20260503225025 17 135 6.4 9.7 0.00 0.00 0.00 22 1033.7
20260503224026 17 293 3.2 3.2 0.00 0.00 0.00 22 1033.7
20260503223026 17 293 3.2 3.2 0.00 0.00 0.00 22 1033.6
20260503222026 17 338 4.8 6.4 0.00 0.00 0.00 23 1033.6
20260503221025 17 360 3.2 4.8 0.00 0.00 0.00 22 1033.6
20260503220026 18 293 0.0 1.6 0.00 0.00 0.00 21 1033.8
20260503215026 18 338 3.2 4.8 0.00 0.00 0.00 21 1033.9
20260503214026 17 293 6.4 9.7 0.00 0.00 0.00 24 1033.8
20260503213026 17 68 1.6 3.2 0.00 0.00 0.00 21 1033.7
20260503212028 18 293 1.6 3.2 0.00 0.00 0.00 23 1033.9
20260503211026 18 315 3.2 3.2 0.00 0.00 0.00 22 1033.9
20260503210026 17 293 4.8 6.4 0.00 0.00 0.00 22 1034.0
20260503205026 17 270 3.2 4.8 0.00 0.00 0.00 21 1034.1
20260503204028 16 315 4.8 8.0 0.00 0.00 0.00 23 1034.1
20260503203027 17 113 1.6 3.2 0.00 0.00 0.00 22 1034.2
20260503202026 16 180 3.2 4.8 0.00 0.00 0.00 23 1034.4
20260503201026 17 270 3.2 3.2 0.00 0.00 0.00 22 1034.4
20260503200028 16 248 11.3 12.9 0.00 0.00 0.00 23 1034.6
20260503195026 16 270 4.8 6.4 0.00 0.00 0.00 24 1034.7
20260503194026 17 270 1.6 3.2 0.00 0.00 0.00 26 1034.9
20260503193026 16 248 8.0 9.7 0.00 0.00 0.00 23 1034.9
20260503192027 15 68 11.3 14.5 0.00 0.00 0.00 27 1035.0
20260503191034 16 180 6.4 8.0 0.00 0.00 0.00 26 1035.3
20260503190026 16 293 4.8 6.4 0.00 0.00 0.00 26 1035.5
20260503185031 15 248 4.8 6.4 0.00 0.00 0.00 27 1035.6
20260503184026 14 23 3.2 4.8 0.00 0.00 0.00 31 1035.8
20260503183026 15 225 6.4 11.3 0.00 0.00 0.00 26 1035.8
20260503182026 16 113 3.2 3.2 0.00 0.00 0.00 26 1036.0
20260503181026 15 338 3.2 4.8 0.00 0.00 0.00 27 1036.0
20260503180026 14 225 4.8 8.0 0.00 0.00 0.00 27 1036.2
20260503175026 15 248 3.2 3.2 0.00 0.00 0.00 29 1036.1
20260503174026 15 360 8.0 11.3 0.00 0.00 0.00 29 1036.2
20260503173026 15 338 1.6 3.2 0.00 0.00 0.00 29 1036.2
20260503172028 13 270 6.4 8.0 0.00 0.00 0.00 28 1036.4
20260503171026 14 248 8.0 12.9 0.00 0.00 0.00 29 1036.5
20260503131026 8 248 14.5 17.7 0.00 0.00 0.00 42 1037.8
20260503081026 5 45 14.5 17.7 0.00 0.00 0.00 63 1034.9
20260503072026 6 338 3.2 4.8 0.00 0.00 0.00 63 1034.5
20260503071026 6 360 3.2 3.2 0.00 0.00 0.00 63 1034.4
20260503055026 6 23 3.2 4.8 0.00 0.00 0.00 66 1034.3
20260503054027 6 23 4.8 6.4 0.00 0.00 0.00 64 1034.3
20260503053026 6 338 1.6 1.6 0.00 0.00 0.00 63 1034.3